Home   Weather   St Helens   Past weeks

Flag for United Kingdom Past Weather in St Helens, England, United Kingdom — Yesterday and Last 2 Weeks

Now
61 °F

Passing clouds.


Feels Like: 61 °F
Forecast: 56 / 67 °F
Wind: 7 mph from South

Location: Liverpool Airport

Current Time: Aug 31, 2016 at 3:28:46 AM

Latest Report: Aug 31, 2016 at 2:50 AM


Visibility: N/A

Pressure: 30.07 "Hg

Humidity: 83%

Dew Point: 55 °F

Location of St HelensLocation

Past Weather in St Helens — Graph

°F

St Helens Temperature Yesterday

Maximum temperature yesterday: 72 °F (at 2:50 PM)
Minimum temperature yesterday: 54 °F (at 6:20 AM)
Average temperature yesterday: 63 °F

High & Low Weather Summary for the Past Weeks

 TemperatureHumidityPressure
High79 °F (Aug 23, 4:50 PM)100% (Aug 21, 3:50 AM)30.24 "Hg (Aug 21, 3:50 AM)
Low50 °F (Aug 27, 4:20 AM)47% (Aug 16, 4:50 PM)29.42 "Hg (Aug 20, 6:20 AM)
Average63 °F79%29.97 "Hg
* Reported Aug 16 2:20 AM — Aug 31 2:20 AM, St Helens, Weather by CustomWeather, © 2016

Note: Actual official high and low records may vary slightly from our data, if they occured in-between our weather recording intervals... More about our weather records

Advertising

St Helens Weather History for the Previous 24 Hours

Scroll right to see more
 ConditionsComfort  
Time TempWeatherWind HumidityBarometerVisibility
2:20 AM
Wed, Aug 31
59 °FPassing clouds.6 mph88%30.07 "HgN/A
1:50 AM59 °FPassing clouds.6 mph88%30.07 "HgN/A
1:20 AM59 °FPassing clouds.5 mph88%30.09 "HgN/A
12:50 AM59 °FPassing clouds.6 mph88%30.09 "HgN/A
12:20 AM59 °FClear.3 mph88%30.09 "Hg10 mi
11:50 PM
Tue, Aug 30
63 °FPassing clouds.6 mph77%30.09 "HgN/A
11:20 PM63 °FPassing clouds.8 mph77%30.09 "HgN/A
10:50 PM63 °FPassing clouds.9 mph77%30.12 "HgN/A
10:20 PM63 °FPassing clouds.7 mph83%30.12 "HgN/A
9:50 PM61 °FClear.6 mph88%30.12 "Hg10 mi
9:20 PM61 °FClear.7 mph88%30.12 "Hg10 mi
8:50 PM64 °FSunny.7 mph78%30.12 "Hg10 mi
8:20 PM66 °FSunny.7 mph73%30.12 "Hg10 mi
7:50 PM66 °FPassing clouds.5 mph73%30.12 "HgN/A
7:20 PM68 °FPassing clouds.7 mph69%30.12 "HgN/A
6:50 PM68 °FScattered clouds.6 mph73%30.12 "HgN/A
6:20 PM70 °FScattered clouds.6 mph64%30.12 "HgN/A
5:50 PM70 °FScattered clouds.7 mph60%30.12 "HgN/A
5:20 PM70 °FPassing clouds.9 mph64%30.15 "HgN/A
4:50 PM70 °FScattered clouds.10 mph64%30.15 "HgN/A
4:20 PM70 °FScattered clouds.9 mph64%30.15 "HgN/A
3:50 PM70 °FScattered clouds.6 mph64%30.18 "HgN/A
3:20 PM70 °FPartly sunny.7 mph64%30.18 "HgN/A
2:50 PM72 °FPartly sunny.8 mph65%30.18 "HgN/A
2:20 PM70 °FPartly sunny.8 mph69%30.21 "HgN/A
1:50 PM68 °FPartly sunny.6 mph69%30.21 "HgN/A
1:20 PM68 °FPartly sunny.6 mph73%30.21 "HgN/A
12:50 PM68 °FPartly sunny.7 mph64%30.21 "HgN/A
12:20 PM68 °FBroken clouds.8 mph69%30.21 "HgN/A
11:50 AM66 °FBroken clouds.12 mph73%30.24 "HgN/A
11:20 AM64 °FPartly sunny.9 mph78%30.24 "HgN/A
10:50 AM66 °FPartly sunny.5 mph78%30.24 "HgN/A
10:20 AM66 °FScattered clouds.6 mph78%30.24 "HgN/A
9:50 AM64 °FPassing clouds.6 mph83%30.21 "HgN/A
9:20 AM63 °FPassing clouds.5 mph88%30.21 "HgN/A
8:50 AM61 °FSunny.5 mph88%30.21 "Hg10 mi
8:20 AM57 °FPassing clouds.5 mph94%30.21 "HgN/A
7:50 AM57 °FPassing clouds.5 mph94%30.21 "HgN/A
7:20 AM55 °FSunny.6 mph94%30.21 "Hg10 mi
6:50 AM55 °FPassing clouds.5 mph94%30.21 "HgN/A
6:20 AM54 °FClear.3 mph100%30.21 "Hg10 mi
5:50 AM55 °FClear.3 mph94%30.21 "Hg10 mi
5:20 AM55 °FClear.3 mph94%30.21 "Hg10 mi
4:50 AM55 °FClear.3 mph94%30.21 "Hg10 mi
4:20 AM55 °FPassing clouds.5 mph94%30.21 "HgN/A
3:50 AM55 °FClear.3 mph94%30.24 "Hg10 mi
3:20 AM55 °FClear.3 mph88%30.24 "Hg10 mi
Weather by CustomWeather, © 2016

See weather overviewHow to use our weather pages